TimeEDT,TemperatureF,Dew PointF,Humidity,Sea Level PressureIn,VisibilityMPH,Wind Direction,Wind SpeedMPH,Gust SpeedMPH,PrecipitationIn,Events,Conditions,WindDirDegrees,DateUTC
12:15 AM,55.4,51.8,88,30.03,10.0,Calm,Calm,-,N/A,,Clear,0,2013-09-21 04:15:00
12:35 AM,55.4,51.8,88,30.03,10.0,Calm,Calm,-,N/A,,Clear,0,2013-09-21 04:35:00
12:55 AM,55.4,51.8,88,30.03,10.0,Calm,Calm,-,N/A,,Clear,0,2013-09-21 04:55:00
1:15 AM,55.4,51.8,88,30.03,10.0,Calm,Calm,-,N/A,,Clear,0,2013-09-21 05:15:00
1:35 AM,55.4,51.8,88,30.02,10.0,Calm,Calm,-,N/A,,Clear,0,2013-09-21 05:35:00
1:55 AM,55.4,51.8,88,30.00,10.0,Calm,Calm,-,N/A,,Clear,0,2013-09-21 05:55:00
2:15 AM,53.6,50.0,88,30.00,10.0,Calm,Calm,-,N/A,,Clear,0,2013-09-21 06:15:00
2:35 AM,53.6,48.2,82,29.99,10.0,Calm,Calm,-,N/A,,Partly Cloudy,0,2013-09-21 06:35:00
2:55 AM,53.6,50.0,88,29.99,10.0,Calm,Calm,-,N/A,,Partly Cloudy,0,2013-09-21 06:55:00
3:15 AM,55.4,51.8,88,29.98,10.0,Calm,Calm,-,N/A,,Clear,0,2013-09-21 07:15:00
3:35 AM,55.4,51.8,88,29.98,10.0,Calm,Calm,-,N/A,,Clear,0,2013-09-21 07:35:00
3:55 AM,55.4,51.8,88,29.97,10.0,Calm,Calm,-,N/A,,Clear,0,2013-09-21 07:55:00
4:15 AM,53.6,50.0,88,29.97,10.0,Calm,Calm,-,N/A,,Clear,0,2013-09-21 08:15:00
4:35 AM,53.6,51.8,94,29.97,10.0,Calm,Calm,-,N/A,,Scattered Clouds,0,2013-09-21 08:35:00
4:55 AM,55.4,51.8,88,29.96,10.0,Calm,Calm,-,N/A,,Partly Cloudy,0,2013-09-21 08:55:00
5:15 AM,55.4,51.8,88,29.96,10.0,Calm,Calm,-,N/A,,Clear,0,2013-09-21 09:15:00
5:35 AM,55.4,51.8,88,29.96,10.0,Calm,Calm,-,N/A,,Scattered Clouds,0,2013-09-21 09:35:00
5:55 AM,55.4,51.8,88,29.97,10.0,Calm,Calm,-,N/A,,Overcast,0,2013-09-21 09:55:00
6:15 AM,55.4,51.8,88,29.96,10.0,Calm,Calm,-,N/A,,Mostly Cloudy,0,2013-09-21 10:15:00
6:35 AM,55.4,51.8,88,29.96,10.0,Calm,Calm,-,N/A,,Mostly Cloudy,0,2013-09-21 10:35:00
6:55 AM,55.4,53.6,94,29.96,10.0,Calm,Calm,-,N/A,,Mostly Cloudy,0,2013-09-21 10:55:00
7:15 AM,55.4,51.8,88,29.96,10.0,Calm,Calm,-,N/A,,Partly Cloudy,0,2013-09-21 11:15:00
7:35 AM,55.4,51.8,88,29.96,10.0,Calm,Calm,-,N/A,,Clear,0,2013-09-21 11:35:00
7:55 AM,59.0,55.4,88,29.95,10.0,Calm,Calm,-,N/A,,Partly Cloudy,0,2013-09-21 11:55:00
8:15 AM,62.6,57.2,82,29.94,10.0,Calm,Calm,-,N/A,,Partly Cloudy,0,2013-09-21 12:15:00
8:35 AM,-9999,-9999,N/A,-9999,-9999.0,North,-9999.0,-,N/A,,Unknown,0,2013-09-21 12:35:00
8:55 AM,-9999,-9999,N/A,-9999,-9999.0,North,-9999.0,-,N/A,,Unknown,0,2013-09-21 12:55:00
9:15 AM,-9999,-9999,N/A,-9999,-9999.0,North,-9999.0,-,N/A,,Unknown,0,2013-09-21 13:15:00
9:35 AM,69.8,62.6,78,29.93,10.0,WSW,4.6,-,N/A,,Scattered Clouds,240,2013-09-21 13:35:00
9:55 AM,69.8,62.6,78,29.92,10.0,SSW,4.6,-,N/A,,Scattered Clouds,210,2013-09-21 13:55:00
10:15 AM,71.6,62.6,73,29.93,10.0,SW,5.8,-,N/A,,Mostly Cloudy,220,2013-09-21 14:15:00
10:35 AM,73.4,62.6,69,29.92,10.0,South,6.9,-,N/A,,Scattered Clouds,190,2013-09-21 14:35:00
10:55 AM,73.4,60.8,65,29.91,10.0,SW,8.1,-,N/A,,Partly Cloudy,220,2013-09-21 14:55:00
11:15 AM,75.2,60.8,61,29.91,10.0,South,10.4,-,N/A,,Clear,180,2013-09-21 15:15:00
11:35 AM,73.4,60.8,65,29.90,10.0,SSE,11.5,-,N/A,,Clear,150,2013-09-21 15:35:00
11:55 AM,75.2,57.2,53,29.90,10.0,SSE,10.4,-,N/A,,Clear,160,2013-09-21 15:55:00
12:15 PM,75.2,55.4,50,29.90,10.0,SSE,12.7,-,N/A,,Clear,160,2013-09-21 16:15:00
12:35 PM,77.0,55.4,47,29.89,10.0,South,12.7,-,N/A,,Clear,170,2013-09-21 16:35:00
12:55 PM,77.0,55.4,47,29.88,10.0,South,11.5,-,N/A,,Clear,180,2013-09-21 16:55:00
1:15 PM,78.8,55.4,44,29.87,10.0,South,11.5,17.3,N/A,,Clear,170,2013-09-21 17:15:00
1:35 PM,78.8,55.4,44,29.87,10.0,South,13.8,-,N/A,,Clear,170,2013-09-21 17:35:00
1:55 PM,78.8,55.4,44,29.85,10.0,SSE,11.5,-,N/A,,Clear,160,2013-09-21 17:55:00
2:15 PM,78.8,53.6,42,29.85,10.0,SSE,13.8,19.6,N/A,,Clear,160,2013-09-21 18:15:00
2:35 PM,78.8,55.4,44,29.84,10.0,SSE,15.0,-,N/A,,Clear,150,2013-09-21 18:35:00
2:55 PM,77.0,57.2,50,29.83,10.0,South,15.0,18.4,N/A,,Clear,170,2013-09-21 18:55:00
3:15 PM,77.0,60.8,57,29.83,10.0,South,17.3,-,N/A,,Clear,170,2013-09-21 19:15:00
3:35 PM,77.0,62.6,61,29.82,10.0,SSE,16.1,20.7,N/A,,Scattered Clouds,160,2013-09-21 19:35:00
3:55 PM,77.0,64.4,65,29.81,10.0,SSE,18.4,21.9,N/A,,Partly Cloudy,160,2013-09-21 19:55:00
4:15 PM,75.2,64.4,69,29.80,10.0,South,15.0,20.7,N/A,,Clear,170,2013-09-21 20:15:00
4:35 PM,75.2,64.4,69,29.80,10.0,South,12.7,24.2,N/A,,Clear,170,2013-09-21 20:35:00
4:55 PM,75.2,64.4,69,29.79,10.0,South,15.0,-,N/A,,Clear,170,2013-09-21 20:55:00
5:15 PM,73.4,64.4,73,29.79,10.0,South,13.8,19.6,N/A,,Clear,170,2013-09-21 21:15:00
5:35 PM,71.6,64.4,78,29.78,10.0,SSE,15.0,-,N/A,,Clear,160,2013-09-21 21:35:00
5:55 PM,71.6,66.2,83,29.75,10.0,SSE,12.7,19.6,N/A,,Clear,160,2013-09-21 21:55:00
6:15 PM,71.6,66.2,83,29.76,10.0,SSE,15.0,20.7,N/A,,Scattered Clouds,160,2013-09-21 22:15:00
6:35 PM,71.6,66.2,83,29.75,10.0,SSE,12.7,-,N/A,,Mostly Cloudy,160,2013-09-21 22:35:00
6:55 PM,71.6,66.2,83,29.74,10.0,South,12.7,-,N/A,,Scattered Clouds,170,2013-09-21 22:55:00
7:15 PM,71.6,66.2,83,29.74,10.0,South,11.5,-,N/A,,Mostly Cloudy,170,2013-09-21 23:15:00
7:35 PM,71.6,64.4,78,29.75,10.0,South,13.8,18.4,N/A,,Mostly Cloudy,170,2013-09-21 23:35:00
7:55 PM,71.6,66.2,83,29.75,10.0,South,15.0,21.9,N/A,,Overcast,170,2013-09-21 23:55:00
8:15 PM,71.6,66.2,83,29.75,10.0,South,12.7,18.4,N/A,,Overcast,170,2013-09-22 00:15:00
8:35 PM,71.6,66.2,83,29.75,10.0,South,12.7,-,N/A,,Overcast,170,2013-09-22 00:35:00
8:55 PM,69.8,66.2,88,29.74,7.0,South,12.7,19.6,0.04,,Overcast,180,2013-09-22 00:55:00
9:15 PM,69.8,66.2,88,29.74,10.0,South,10.4,-,0.01,,Overcast,170,2013-09-22 01:15:00
9:35 PM,69.8,66.2,88,29.73,10.0,South,13.8,-,0.01,,Overcast,170,2013-09-22 01:35:00
9:55 PM,69.8,66.2,88,29.73,10.0,South,12.7,18.4,0.01,,Overcast,170,2013-09-22 01:55:00
10:15 PM,69.8,66.2,88,29.73,10.0,South,12.7,18.4,N/A,,Overcast,180,2013-09-22 02:15:00
10:35 PM,69.8,66.2,88,29.73,10.0,South,12.7,16.1,N/A,,Overcast,180,2013-09-22 02:35:00
10:55 PM,69.8,66.2,88,29.72,9.0,South,11.5,-,0.01,,Overcast,180,2013-09-22 02:55:00
11:15 PM,69.8,66.2,88,29.72,10.0,South,13.8,19.6,0.01,,Overcast,180,2013-09-22 03:15:00
11:35 PM,69.8,64.4,83,29.72,10.0,South,11.5,17.3,0.02,,Overcast,180,2013-09-22 03:35:00
11:55 PM,69.8,64.4,83,29.72,9.0,South,11.5,17.3,0.03,,Overcast,190,2013-09-22 03:55:00